Location: Newark
(45.2500°N, 7.5833°E)
Time: 15:16:50
(UTC+00:00)

Vanguard 3 - Pass Details

Date: 31 January 2020
Orbit: 508 x 3263 km, 33.3° (Epoch: 17 February)

Event Time Altitude Azimuth Distance (km) Brightness Sun altitude
Rises 12:49:14 0° 196° (SSW) 5,732 12.9 25.5°
Reaches altitude 10° 12:53:43 10° 183° (S) 5,129 12.8 25.3°
Maximum altitude 13:05:20 25° 136° (SE) 4,739 11.5 24.6°
Drops below altitude 10° 13:19:06 10° 92° (E) 6,205 11.5 23.6°
Sets 13:25:15 0° 81° (E) 7,168 11.6 23.2°
